QPF
0.00 0.00 0.00 0.00 0.00 0.00 0.00 0.00 0.00 0.00 0.00 0.00 0.00 0.00 0.00 0.00 0.00 0.00 0.00 0.03 0.04 0.02 0.01 0.01 0.01 0.00 0.02 0.01 0.01 0.03 0.01 0.02 0.06 0.26 0.39 0.08 0.04 0.05 0.00 0.00 0.00 0.00 0.01
0.00 0.00 0.00 0.00 0.00 0.00 0.00 0.00 0.00 0.00 0.00 0.00 0.00 0.00 0.00 0.00 0.00 0.00 0.01 0.03 0.04 0.04 0.05 0.04 0.06 0.06 0.01 0.01 0.01 0.04 0.01 0.00 0.00 0.02 0.26 0.18 0.04 0.01 0.00 0.00 0.00 0.01 0.03
0.00 0.00 0.00 0.00 0.00 0.00 0.00 0.00 0.00 0.00 0.00 0.00 0.00 0.00 0.00 0.00 0.00 0.00 0.00 0.00 0.00 0.00 0.01 0.03 0.05 0.07 0.08 0.06 0.04 0.08 0.05 0.00 0.00 0.03 0.12 0.13 0.03 0.01 0.00 0.00 0.00 0.02 0.02
0.00 0.00 0.00 0.00 0.00 0.00 0.00 0.00 0.00 0.00 0.00 0.00 0.00 0.00 0.00 0.00 0.00 0.00 0.00 0.00 0.00 0.00 0.00 0.00 0.01 0.02 0.02 0.04 0.03 0.01 0.00 0.00 0.02 0.03 0.01 0.01 0.01 0.00 0.00 0.00 0.01 0.03 0.03
0.00 0.00 0.00 0.00 0.00 0.00 0.00 0.00 0.00 0.00 0.00 0.00 0.00 0.00 0.00 0.00 0.00 0.00 0.00 0.00 0.00 0.00 0.00 0.00 0.01 0.02 0.00 0.00 0.00 0.00 0.00 0.01 0.04 0.03 0.00 0.00 0.01 0.01 0.02 0.02 0.02 0.03 0.01
0.00 0.00 0.00 0.00 0.00 0.00 0.00 0.00 0.00 0.00 0.00 0.00 0.00 0.00 0.00 0.00 0.00 0.00 0.00 0.00 0.00 0.00 0.00 0.00 0.01 0.01 0.00 0.01 0.00 0.00 0.00 0.00 0.01 0.04 0.02 0.01 0.01 0.04 0.03 0.01 0.01 0.00 0.00
0.00 0.00 0.00 0.00 0.00 0.00 0.00 0.00 0.00 0.00 0.00 0.00 0.00 0.00 0.00 0.00 0.00 0.00 0.00 0.00 0.00 0.00 0.00 0.00 0.00 0.04 0.01 0.00 0.02 0.03 0.00 0.00 0.01 0.02 0.01 0.00 0.00 0.03 0.01 0.01 0.00 0.00 0.00
0.00 0.00 0.00 0.00 0.00 0.00 0.00 0.00 0.00 0.00 0.00 0.00 0.00 0.00 0.00 0.00 0.00 0.00 0.00 0.00 0.00 0.00 0.00 0.00 0.00 0.02 0.02 0.00 0.01 0.01 0.00 0.00 0.01 0.01 0.00 0.00 0.00 0.00 0.00 0.00 0.00 0.00 0.00
0.00 0.00 0.00 0.00 0.00 0.00 0.00 0.00 0.00 0.00 0.00 0.00 0.00 0.00 0.00 0.00 0.00 0.00 0.00 0.00 0.00 0.00 0.00 0.00 0.00 0.01 0.02 0.01 0.02 0.03 0.07 0.11 0.04 0.04 0.00 0.00 0.01 0.03 0.00 0.00 0.00 0.00 0.00
0.00 0.00 0.00 0.00 0.00 0.00 0.00 0.00 0.00 0.00 0.00 0.00 0.00 0.00 0.00 0.00 0.00 0.00 0.00 0.00 0.00 0.00 0.00 0.00 0.00 0.00 0.00 0.02 0.09 0.11 0.13 0.13 0.11 0.02 0.01 0.00 0.01 0.05 0.01 0.01 0.00 0.00 0.00
0.00 0.00 0.00 0.00 0.00 0.00 0.00 0.00 0.00 0.00 0.00 0.00 0.00 0.00 0.00 0.00 0.00 0.00 0.00 0.00 0.00 0.00 0.00 0.00 0.00 0.00 0.01 0.04 0.08 0.06 0.05 0.07 0.03 0.01 0.00 0.02 0.04 0.06 0.01 0.01 0.00 0.00 0.00
0.00 0.00 0.00 0.00 0.00 0.00 0.00 0.00 0.00 0.00 0.00 0.00 0.00 0.00 0.00 0.00 0.00 0.00 0.00 0.00 0.00 0.00 0.00 0.00 0.01 0.00 0.00 0.03 0.01 0.00 0.02 0.05 0.01 0.00 0.01 0.03 0.05 0.05 0.01 0.01 0.00 0.00 0.00
0.00 0.00 0.00 0.00 0.00 0.00 0.00 0.00 0.00 0.00 0.00 0.00 0.00 0.00 0.00 0.00 0.00 0.00 0.00 0.00 0.00 0.00 0.00 0.00 0.01 0.00 0.00 0.00 0.00 0.00 0.01 0.08 0.01 0.00 0.01 0.01 0.03 0.02 0.01 0.00 0.00 0.00 0.00
0.00 0.00 0.00 0.00 0.00 0.00 0.00 0.00 0.00 0.00 0.00 0.00 0.00 0.00 0.00 0.00 0.00 0.00 0.00 0.00 0.00 0.00 0.00 0.00 0.00 0.00 0.00 0.00 0.02 0.01 0.01 0.06 0.02 0.00 0.02 0.02 0.02 0.01 0.00 0.00 0.00 0.01 0.01
0.00 0.00 0.00 0.00 0.00 0.00 0.00 0.00 0.00 0.00 0.00 0.00 0.00 0.00 0.00 0.00 0.00 0.00 0.00 0.00 0.00 0.00 0.00 0.00 0.00 0.00 0.00 0.04 0.05 0.05 0.12 0.13 0.13 0.06 0.01 0.01 0.01 0.01 0.00 0.00 0.01 0.01 0.01
0.00 0.00 0.00 0.00 0.00 0.00 0.00 0.00 0.00 0.00 0.00 0.00 0.00 0.00 0.00 0.00 0.00 0.00 0.00 0.00 0.00 0.00 0.00 0.00 0.00 0.00 0.00 0.05 0.07 0.03 0.08 0.10 0.08 0.07 0.01 0.00 0.00 0.00 0.00 0.01 0.01 0.01 0.01
0.00 0.00 0.00 0.00 0.00 0.00 0.00 0.00 0.00 0.00 0.00 0.00 0.00 0.00 0.00 0.00 0.00 0.00 0.00 0.00 0.00 0.00 0.00 0.00 0.00 0.00 0.00 0.01 0.07 0.08 0.09 0.05 0.04 0.05 0.05 0.01 0.00 0.00 0.00 0.01 0.01 0.01 0.01
0.00 0.00 0.00 0.00 0.00 0.00 0.00 0.00 0.00 0.00 0.00 0.00 0.00 0.00 0.00 0.00 0.00 0.00 0.00 0.00 0.00 0.00 0.00 0.00 0.00 0.00 0.00 0.00 0.01 0.02 0.02 0.02 0.03 0.06 0.05 0.01 0.00 0.00 0.00 0.00 0.00 0.01 0.01
0.00 0.00 0.00 0.00 0.00 0.00 0.00 0.00 0.00 0.00 0.00 0.00 0.00 0.00 0.00 0.00 0.00 0.00 0.00 0.00 0.00 0.00 0.00 0.00 0.00 0.00 0.00 0.00 0.00 0.00 0.00 0.00 0.02 0.05 0.03 0.01 0.00 0.00 0.00 0.00 0.00 0.01 0.01
0.00 0.00 0.00 0.00 0.00 0.00 0.00 0.00 0.00 0.00 0.00 0.00 0.00 0.00 0.00 0.00 0.00 0.00 0.00 0.00 0.00 0.00 0.00 0.00 0.00 0.00 0.00 0.00 0.00 0.00 0.00 0.00 0.01 0.04 0.05 0.02 0.00 0.00 0.00 0.00 0.00 0.00 0.00
0.00 0.00 0.00 0.00 0.00 0.00 0.00 0.00 0.00 0.00 0.00 0.00 0.00 0.00 0.00 0.00 0.00 0.00 0.00 0.00 0.00 0.00 0.00 0.00 0.00 0.00 0.00 0.00 0.00 0.00 0.00 0.00 0.00 0.02 0.02 0.01 0.00 0.00 0.00 0.00 0.00 0.00 0.00
0.00 0.00 0.00 0.00 0.00 0.00 0.00 0.00 0.00 0.00 0.00 0.00 0.00 0.00 0.00 0.00 0.00 0.00 0.00 0.00 0.00 0.00 0.00 0.00 0.00 0.00 0.00 0.00 0.00 0.00 0.00 0.00 0.00 0.00 0.00 0.00 0.00 0.00 0.00 0.00 0.00 0.00 0.00
0.00 0.00 0.00 0.00 0.00 0.00 0.00 0.00 0.00 0.05 0.05 0.02 0.00 0.00 0.00 0.00 0.00 0.00 0.00 0.00 0.00 0.00 0.00 0.00 0.00 0.00 0.00 0.00 0.00 0.00 0.00 0.00 0.00 0.00 0.00 0.00 0.00 0.00 0.00 0.00 0.00 0.00 0.00
0.00 0.00 0.00 0.00 0.00 0.00 0.00 0.00 0.00 0.00 0.00 0.00 0.00 0.00 0.00 0.00 0.01 0.01 0.01 0.00 0.00 0.00 0.00 0.00 0.01 0.01 0.00 0.00 0.00 0.00 0.00 0.00 0.00 0.00 0.00 0.00 0.00 0.00 0.00 0.00 0.00 0.00 0.00
0.00 0.00 0.00 0.00 0.00 0.00 0.00 0.00 0.00 0.00 0.00 0.00 0.00 0.00 0.00 0.00 0.00 0.00 0.00 0.00 0.00 0.00 0.00 0.00 0.01 0.02 0.01 0.01 0.00 0.01 0.00 0.00 0.00 0.00 0.00 0.00 0.00 0.00 0.00 0.00 0.00 0.00 0.00
0.00 0.00 0.00 0.00 0.00 0.00 0.00 0.00 0.00 0.00 0.00 0.00 0.00 0.01 0.01 0.00 0.00 0.00 0.00 0.00 0.01 0.00 0.00 0.00 0.01 0.01 0.02 0.02 0.02 0.01 0.00 0.00 0.00 0.00 0.00 0.00 0.00 0.00 0.00 0.00 0.00 0.00 0.00
MSLP
1007.20 1007.12 1007.55 1007.98 1008.25 1008.12 1008.28 1008.56 1008.79 1008.91 1009.14 1009.41 1009.72 1009.96 1010.14 1010.32 1010.58 1010.87 1011.21 1011.55 1011.79 1012.00 1012.27 1012.44 1012.59 1012.72 1012.94 1013.01 1013.15 1013.63 1013.95 1014.29 1014.57 1014.82 1015.13 1015.20 1015.26 1015.84 1015.82 1016.03 1016.19 1016.41 1016.63
1005.80 1006.75 1007.40 1007.84 1008.05 1008.08 1008.27 1008.58 1008.84 1009.04 1009.26 1009.48 1009.75 1010.09 1010.38 1010.60 1010.85 1011.08 1011.29 1011.60 1011.94 1012.10 1012.32 1012.66 1012.78 1013.02 1013.11 1013.28 1013.55 1013.97 1014.28 1014.52 1014.74 1015.12 1015.12 1015.48 1015.55 1016.06 1016.21 1016.43 1016.63 1016.88 1017.21
1005.79 1006.53 1007.12 1007.53 1007.87 1008.00 1008.24 1008.57 1008.88 1009.29 1009.59 1009.68 1009.88 1010.19 1010.47 1010.74 1010.99 1011.21 1011.43 1011.66 1011.91 1012.11 1012.22 1012.42 1012.74 1013.09 1013.39 1013.58 1013.81 1014.21 1014.75 1014.94 1015.18 1015.53 1015.83 1015.75 1016.13 1016.30 1016.66 1016.82 1017.00 1017.43 1017.63
1006.04 1006.37 1006.78 1007.18 1007.59 1007.88 1008.09 1008.46 1008.89 1009.25 1009.63 1009.91 1010.10 1010.38 1010.57 1010.89 1011.04 1011.34 1011.61 1011.82 1011.95 1012.17 1012.42 1012.65 1012.78 1013.12 1013.35 1013.87 1014.08 1014.48 1015.03 1015.29 1015.38 1015.71 1016.00 1016.33 1016.46 1016.66 1017.09 1017.33 1017.48 1017.74 1018.07
1006.54 1006.56 1006.61 1006.90 1007.36 1007.66 1007.88 1008.15 1008.78 1009.26 1009.65 1010.03 1010.24 1010.48 1010.76 1011.03 1011.24 1011.53 1011.79 1011.98 1012.16 1012.19 1012.32 1012.70 1013.09 1013.38 1013.43 1013.95 1014.39 1014.70 1015.38 1015.68 1015.94 1016.17 1016.46 1016.63 1016.80 1017.13 1017.52 1017.66 1018.00 1018.17 1018.41
1006.39 1006.45 1006.49 1006.94 1007.28 1007.49 1007.72 1007.92 1008.55 1009.10 1009.60 1010.15 1010.41 1010.59 1010.89 1011.17 1011.44 1011.72 1011.95 1012.21 1012.46 1012.67 1012.73 1012.59 1013.22 1013.72 1013.95 1014.11 1014.44 1015.05 1015.50 1015.91 1016.32 1016.65 1016.99 1017.01 1017.10 1017.48 1017.80 1018.11 1018.34 1018.66 1018.93
1006.04 1006.22 1006.46 1006.95 1007.06 1007.32 1007.66 1007.88 1008.46 1009.07 1009.60 1010.13 1010.64 1010.81 1010.96 1011.29 1011.61 1011.91 1012.16 1012.46 1012.69 1012.91 1013.11 1013.29 1013.27 1013.94 1014.25 1014.49 1014.62 1015.19 1015.84 1016.15 1016.60 1016.90 1017.19 1017.28 1017.33 1017.62 1018.05 1018.51 1018.79 1019.07 1019.36
1005.46 1006.02 1006.50 1006.97 1007.11 1007.21 1007.54 1008.03 1008.47 1008.97 1009.48 1010.10 1010.60 1010.98 1011.11 1011.37 1011.73 1012.09 1012.30 1012.62 1012.99 1013.15 1013.25 1013.58 1013.53 1013.97 1014.52 1015.08 1015.14 1015.70 1016.19 1016.46 1016.88 1017.10 1017.38 1017.54 1017.59 1017.81 1018.28 1018.88 1019.26 1019.56 1019.82
1005.80 1006.29 1006.56 1006.98 1007.12 1007.31 1007.52 1007.86 1008.51 1009.07 1009.51 1010.04 1010.50 1010.98 1011.30 1011.56 1011.84 1012.22 1012.43 1012.76 1013.28 1013.48 1013.65 1013.44 1014.00 1014.02 1014.95 1015.46 1015.73 1016.09 1016.45 1016.81 1017.11 1017.38 1017.51 1017.72 1017.75 1018.25 1018.68 1019.22 1019.57 1019.92 1020.27
1006.23 1006.66 1006.71 1006.86 1007.11 1007.45 1007.81 1007.88 1008.43 1008.96 1009.55 1010.08 1010.45 1010.94 1011.40 1011.71 1011.95 1012.31 1012.52 1012.88 1013.30 1013.68 1013.75 1013.55 1013.83 1014.29 1015.19 1015.66 1016.17 1016.62 1016.89 1017.26 1017.46 1017.72 1017.98 1018.00 1018.06 1018.27 1019.02 1019.34 1019.75 1020.08 1020.53
1007.02 1007.17 1007.07 1006.91 1007.15 1007.38 1007.78 1008.11 1008.59 1009.09 1009.58 1010.17 1010.60 1010.94 1011.38 1011.85 1012.20 1012.48 1012.72 1013.03 1013.27 1013.57 1013.78 1013.88 1014.07 1014.66 1015.33 1015.97 1016.48 1016.84 1017.03 1017.43 1017.55 1017.92 1018.16 1018.26 1018.46 1018.63 1019.01 1019.53 1019.99 1020.32 1020.76
1006.85 1006.78 1006.80 1006.87 1007.04 1007.47 1007.84 1008.28 1008.72 1009.18 1009.68 1010.19 1010.67 1011.13 1011.42 1011.82 1012.28 1012.55 1012.85 1013.09 1013.34 1013.62 1013.98 1014.13 1014.39 1014.83 1015.48 1016.15 1016.74 1016.93 1017.22 1017.46 1017.75 1017.97 1018.36 1018.36 1018.70 1018.85 1019.28 1019.78 1020.22 1020.53 1020.96
1005.93 1006.64 1006.51 1006.59 1006.73 1007.20 1007.76 1008.21 1008.83 1009.18 1009.63 1010.12 1010.68 1011.14 1011.43 1011.80 1012.31 1012.72 1013.07 1013.21 1013.55 1013.70 1014.15 1014.44 1014.78 1015.15 1015.63 1016.21 1016.71 1017.09 1017.24 1017.59 1017.86 1018.14 1018.43 1018.57 1018.68 1019.00 1019.42 1019.93 1020.37 1020.77 1020.97
1006.30 1005.81 1006.27 1006.52 1006.67 1007.01 1007.53 1008.13 1008.57 1009.06 1009.40 1009.76 1010.39 1011.06 1011.51 1011.86 1012.27 1012.77 1013.09 1013.35 1013.68 1013.85 1014.26 1014.57 1014.98 1015.35 1015.78 1016.24 1016.62 1017.13 1017.43 1017.65 1017.95 1018.15 1018.52 1018.68 1018.84 1019.10 1019.54 1020.09 1020.35 1020.92 1021.16
1006.61 1007.22 1006.45 1006.35 1006.56 1006.88 1007.25 1007.84 1008.34 1008.80 1009.10 1009.48 1009.89 1010.75 1011.27 1011.74 1012.18 1012.46 1013.00 1013.41 1013.73 1013.95 1014.42 1014.80 1015.19 1015.56 1015.85 1016.29 1016.66 1016.96 1017.22 1017.72 1018.07 1018.15 1018.53 1018.75 1018.86 1019.11 1019.60 1020.11 1020.30 1020.78 1021.20
1005.19 1006.04 1006.75 1006.38 1006.34 1006.67 1007.12 1007.55 1007.94 1008.34 1008.75 1009.36 1009.59 1010.21 1010.90 1011.45 1011.97 1012.36 1012.85 1013.36 1013.69 1013.96 1014.49 1014.86 1015.23 1015.67 1015.95 1016.26 1016.87 1016.95 1017.16 1017.65 1017.93 1018.04 1018.43 1018.93 1019.03 1019.22 1019.62 1019.99 1020.22 1020.60 1021.08
1003.88 1004.09 1005.40 1006.01 1006.01 1006.03 1006.47 1007.21 1007.63 1007.96 1008.42 1008.95 1009.26 1009.78 1010.44 1011.05 1011.60 1012.07 1012.57 1013.00 1013.50 1013.82 1014.42 1015.10 1015.39 1015.70 1016.11 1016.44 1016.92 1017.07 1017.24 1017.59 1017.99 1018.15 1018.97 1018.93 1019.24 1019.49 1019.80 1020.06 1020.29 1020.64 1020.98
1002.85 1003.31 1003.76 1004.92 1005.53 1005.56 1005.87 1006.55 1007.07 1007.45 1007.96 1008.42 1008.83 1009.33 1009.84 1010.55 1011.17 1011.85 1012.41 1012.70 1013.11 1013.63 1014.18 1014.98 1015.39 1015.84 1016.10 1016.49 1016.90 1017.26 1017.45 1017.70 1018.04 1018.37 1018.81 1018.92 1019.24 1019.46 1019.80 1020.16 1020.38 1020.70 1021.01
1001.96 1002.23 1002.78 1003.38 1004.49 1004.78 1005.11 1005.93 1006.59 1007.05 1007.57 1007.97 1008.36 1008.89 1009.35 1010.01 1010.63 1011.42 1012.10 1012.40 1012.78 1013.47 1014.12 1014.80 1015.38 1015.67 1016.24 1016.63 1016.89 1017.13 1017.38 1017.65 1017.89 1018.29 1018.94 1019.04 1019.12 1019.47 1019.85 1020.15 1020.42 1020.73 1021.00
1001.12 1001.13 1001.57 1002.23 1002.85 1003.98 1004.71 1005.54 1006.33 1006.98 1007.33 1007.68 1007.98 1008.42 1008.76 1009.48 1010.15 1010.88 1011.67 1012.16 1012.46 1013.25 1013.99 1014.54 1015.16 1015.65 1016.09 1016.46 1016.92 1017.40 1017.68 1017.89 1018.05 1018.43 1018.67 1018.98 1019.06 1019.40 1019.81 1020.17 1020.36 1020.81 1021.10
1000.75 1000.66 1000.46 1001.17 1001.75 1002.89 1003.88 1004.70 1005.59 1005.92 1006.41 1007.01 1007.44 1007.91 1008.28 1008.95 1009.63 1010.37 1011.19 1011.87 1012.36 1012.83 1013.49 1014.24 1015.03 1015.51 1016.14 1016.45 1017.13 1017.80 1018.04 1018.05 1018.03 1018.45 1018.79 1019.07 1019.16 1019.35 1019.72 1020.10 1020.45 1020.63 1021.07
999.64 999.86 999.91 999.88 1000.46 1001.17 1002.16 1002.89 1003.86 1004.69 1005.60 1006.22 1007.03 1007.63 1007.90 1008.43 1009.10 1009.85 1010.55 1011.35 1011.94 1012.56 1013.20 1013.87 1014.40 1015.23 1015.72 1015.97 1016.60 1017.46 1017.94 1018.42 1018.36 1018.45 1018.55 1018.87 1019.34 1019.46 1019.79 1019.92 1020.35 1020.71 1020.97
998.60 999.00 999.00 998.81 999.21 999.72 1000.74 1002.16 1003.33 1004.64 1005.65 1006.35 1006.86 1007.10 1007.31 1007.91 1008.39 1009.13 1009.93 1010.69 1011.39 1012.01 1012.63 1013.26 1013.85 1014.32 1014.98 1015.60 1015.66 1016.18 1017.14 1017.44 1017.90 1018.26 1018.46 1018.60 1019.11 1019.54 1019.70 1019.79 1020.03 1020.46 1020.88
997.10 997.77 997.91 997.73 998.11 998.77 999.91 1000.92 1001.87 1002.42 1003.80 1004.32 1004.95 1006.06 1006.81 1007.50 1008.07 1008.48 1009.21 1010.01 1010.67 1011.34 1012.06 1012.61 1013.24 1013.67 1014.06 1014.65 1015.49 1015.30 1015.70 1016.05 1017.01 1017.88 1018.21 1018.48 1018.66 1019.08 1019.54 1019.62 1019.79 1020.11 1020.50
995.91 996.40 997.02 997.05 997.65 997.91 998.84 999.67 1000.75 1001.69 1002.49 1003.45 1004.38 1005.40 1006.26 1007.01 1007.63 1008.18 1008.64 1009.41 1010.02 1010.66 1011.24 1011.90 1012.73 1013.25 1013.49 1013.78 1014.14 1014.77 1015.40 1015.77 1015.77 1016.31 1017.04 1017.92 1018.41 1018.58 1019.01 1019.26 1019.26 1019.67 1020.11
995.72 996.34 996.93 997.52 997.29 997.61 998.15 999.06 999.99 1000.88 1001.89 1002.89 1003.97 1004.81 1005.89 1006.69 1007.36 1007.89 1008.04 1008.81 1009.43 1010.01 1010.62 1011.33 1011.96 1012.59 1013.06 1013.21 1013.57 1013.92 1014.18 1014.80 1015.25 1015.52 1015.92 1016.64 1016.91 1017.68 1018.29 1018.78 1019.03 1019.19 1019.54
Thickness
5777 5778 5771 5766 5762 5762 5759 5755 5752 5750 5747 5745 5742 5740 5738 5735 5732 5728 5724 5720 5717 5712 5707 5705 5703 5702 5700 5701 5701 5700 5701 5700 5699 5697 5693 5692 5696 5690 5694 5692 5691 5691 5689
5788 5778 5772 5766 5762 5760 5757 5753 5750 5747 5743 5742 5740 5736 5733 5731 5727 5724 5721 5717 5711 5707 5703 5699 5696 5693 5694 5695 5695 5695 5695 5696 5695 5693 5691 5683 5691 5689 5689 5689 5688 5687 5684
5784 5777 5771 5766 5761 5759 5755 5751 5748 5743 5739 5738 5735 5732 5729 5725 5723 5720 5717 5713 5709 5704 5701 5698 5692 5688 5686 5690 5691 5690 5688 5689 5689 5688 5686 5687 5686 5686 5684 5684 5686 5682 5681
5780 5775 5770 5766 5761 5758 5754 5750 5746 5741 5737 5734 5731 5728 5725 5721 5720 5716 5713 5709 5705 5701 5696 5691 5687 5683 5684 5684 5686 5683 5682 5683 5684 5684 5684 5682 5682 5681 5679 5680 5680 5679 5676
5772 5770 5768 5766 5761 5756 5753 5751 5744 5739 5735 5731 5729 5725 5721 5718 5715 5712 5708 5704 5701 5698 5694 5687 5680 5679 5680 5680 5679 5680 5677 5678 5677 5678 5678 5678 5677 5676 5674 5675 5673 5673 5672
5770 5767 5765 5762 5759 5756 5752 5750 5744 5739 5734 5728 5726 5722 5718 5714 5711 5708 5704 5699 5695 5692 5688 5687 5679 5675 5674 5674 5676 5676 5676 5674 5672 5672 5671 5672 5674 5673 5672 5670 5669 5667 5665
5768 5765 5762 5759 5758 5755 5751 5749 5743 5737 5732 5727 5721 5719 5716 5712 5708 5704 5700 5695 5691 5687 5684 5680 5679 5672 5670 5671 5674 5673 5670 5669 5668 5668 5668 5669 5672 5670 5667 5664 5663 5662 5661
5769 5764 5758 5754 5755 5753 5749 5745 5741 5736 5730 5724 5719 5715 5713 5710 5705 5700 5697 5691 5686 5683 5681 5676 5676 5671 5667 5665 5668 5665 5665 5665 5665 5665 5664 5665 5666 5666 5663 5660 5658 5656 5655
5763 5758 5755 5750 5751 5750 5747 5744 5738 5732 5728 5722 5718 5712 5709 5706 5702 5697 5694 5688 5682 5679 5676 5675 5671 5669 5663 5661 5660 5658 5659 5659 5660 5660 5661 5661 5662 5659 5658 5655 5654 5652 5650
5755 5753 5752 5747 5748 5746 5742 5741 5736 5731 5724 5719 5715 5710 5706 5703 5699 5694 5691 5686 5680 5675 5673 5673 5671 5668 5662 5658 5655 5652 5652 5652 5653 5653 5654 5656 5657 5657 5652 5652 5650 5650 5647
5743 5743 5746 5744 5744 5744 5739 5736 5731 5726 5721 5715 5711 5708 5704 5699 5695 5690 5687 5683 5679 5674 5671 5670 5669 5664 5660 5655 5651 5649 5649 5648 5651 5650 5651 5651 5651 5652 5651 5648 5645 5646 5643
5734 5740 5741 5740 5740 5739 5735 5731 5727 5722 5717 5711 5707 5704 5702 5697 5692 5687 5684 5681 5677 5673 5669 5667 5665 5662 5657 5653 5648 5646 5647 5647 5647 5649 5646 5648 5647 5648 5646 5644 5642 5642 5639
5731 5733 5736 5738 5738 5735 5732 5727 5721 5718 5713 5709 5704 5701 5699 5695 5689 5684 5680 5678 5673 5670 5666 5662 5660 5658 5654 5650 5647 5644 5645 5643 5644 5644 5643 5642 5644 5642 5642 5640 5639 5637 5637
5718 5730 5729 5732 5733 5732 5729 5724 5719 5715 5711 5708 5703 5698 5695 5692 5688 5682 5678 5675 5671 5667 5663 5659 5656 5655 5651 5647 5644 5641 5641 5642 5641 5640 5639 5638 5638 5638 5637 5635 5636 5633 5634
5706 5706 5718 5725 5726 5726 5724 5720 5717 5713 5710 5707 5703 5696 5692 5689 5685 5681 5676 5672 5669 5664 5659 5655 5652 5650 5648 5645 5641 5639 5640 5640 5637 5638 5636 5634 5634 5634 5634 5631 5633 5631 5630
5710 5706 5706 5716 5720 5720 5718 5716 5714 5712 5708 5703 5702 5697 5691 5687 5683 5680 5675 5671 5666 5663 5658 5653 5649 5647 5646 5642 5637 5637 5638 5636 5636 5636 5630 5630 5629 5631 5630 5629 5630 5629 5628
5711 5716 5709 5709 5712 5716 5716 5711 5710 5709 5705 5702 5700 5696 5691 5686 5682 5677 5674 5670 5665 5661 5656 5650 5645 5643 5641 5639 5635 5634 5634 5633 5631 5632 5625 5626 5625 5625 5625 5625 5625 5625 5625
5709 5711 5713 5711 5708 5712 5713 5710 5707 5706 5704 5702 5698 5695 5692 5686 5681 5675 5671 5670 5665 5660 5656 5649 5644 5639 5638 5636 5634 5631 5630 5628 5627 5626 5623 5623 5623 5623 5622 5620 5622 5621 5622
5703 5710 5710 5714 5709 5711 5712 5707 5703 5702 5701 5699 5697 5694 5690 5685 5681 5674 5670 5667 5664 5658 5653 5648 5643 5639 5633 5630 5629 5627 5626 5625 5624 5621 5618 5619 5621 5620 5619 5617 5618 5617 5618
5698 5705 5708 5711 5712 5708 5706 5701 5696 5695 5696 5696 5695 5692 5689 5684 5680 5674 5669 5665 5662 5657 5650 5646 5642 5637 5631 5628 5624 5621 5619 5620 5619 5618 5618 5615 5617 5617 5615 5614 5615 5613 5613
5684 5692 5702 5705 5710 5705 5701 5698 5694 5695 5696 5693 5692 5689 5687 5682 5678 5674 5668 5663 5660 5656 5651 5645 5638 5634 5627 5624 5619 5612 5611 5613 5614 5614 5613 5611 5611 5612 5611 5611 5611 5610 5608
5680 5685 5693 5701 5707 5708 5707 5707 5701 5697 5693 5691 5687 5685 5682 5680 5677 5674 5668 5663 5659 5654 5648 5642 5638 5631 5626 5624 5617 5611 5607 5606 5609 5609 5609 5607 5606 5606 5606 5608 5606 5606 5605
5670 5678 5687 5698 5702 5709 5709 5703 5694 5686 5680 5678 5681 5682 5682 5678 5676 5673 5667 5664 5658 5654 5648 5643 5638 5634 5627 5622 5621 5615 5607 5609 5605 5604 5604 5604 5602 5600 5600 5602 5602 5601 5600
5667 5674 5682 5695 5700 5704 5702 5701 5697 5696 5687 5691 5689 5681 5679 5676 5672 5672 5667 5663 5659 5654 5648 5643 5638 5635 5632 5624 5617 5618 5615 5614 5604 5600 5600 5599 5600 5598 5596 5597 5597 5597 5595
5662 5667 5670 5685 5694 5699 5698 5701 5697 5693 5694 5688 5684 5679 5674 5672 5670 5668 5666 5662 5659 5654 5650 5644 5636 5632 5630 5627 5623 5617 5610 5610 5612 5609 5603 5596 5594 5596 5595 5594 5595 5593 5591
5650 5662 5667 5673 5685 5691 5694 5694 5693 5691 5688 5683 5678 5674 5667 5665 5664 5662 5664 5660 5657 5654 5649 5642 5636 5631 5627 5626 5623 5620 5617 5610 5608 5606 5605 5601 5602 5596 5592 5590 5591 5590 5588